When you browse on this site, cookies collect data to enhance your experience and personalize the content and advertising you see.
Visit our Privacy Policy to learn more. By continuing to use the site, you agree to this use of cookies and data.
  • In Slovakia
  • List of Countries
  • For 7 days
  • Water Temperature
  • Weather Map
  • Weather Widgets
  • user-avatar
    Login

    Hourly Weather Shkoder

    Today, 6 December, Friday

    Time Temperature Precipitation Wind Pressure Humidity
    00:00 +7°C° 0 mm 1 mps 747 mmHg 73%
    01:00 +7°C° 0 mm 1 mps 747 mmHg 73%
    02:00 +8°C° 0 mm 1 mps 747 mmHg 73%
    03:00 +8°C° 0 mm 1 mps 746 mmHg 74%
    04:00 +8°C° 0 mm 1 mps 746 mmHg 74%
    05:00 +8°C° 0 mm 1 mps 746 mmHg 75%
    06:00 +8°C° 0 mm 1 mps 746 mmHg 76%
    07:00 +9°C° 0 mm 1 mps 746 mmHg 77%
    08:00 +10°C° 0 mm 1 mps 746 mmHg 75%
    09:00 +12°C° 0 mm 1 mps 746 mmHg 73%
    10:00 +13°C° 0 mm 1 mps 746 mmHg 71%
    11:00 +14°C° 0 mm 1 mps 746 mmHg 71%
    12:00 +14°C° 0 mm 1 mps 745 mmHg 70%
    13:00 +15°C° 0 mm 1 mps 745 mmHg 70%
    14:00 +14°C° 0 mm 1 mps 745 mmHg 74%
    15:00 +13°C° 0 mm 1 mps 744 mmHg 78%
    16:00 +11°C° 0 mm 0 mps 744 mmHg 82%
    17:00 +12°C° 0.1 mm 1 mps 744 mmHg 82%
    18:00 +12°C° 0.1 mm 1 mps 744 mmHg 83%
    19:00 +12°C° 0.1 mm 1 mps 744 mmHg 83%
    20:00 +12°C° 1.2 mm 1 mps 744 mmHg 86%
    21:00 +12°C° 1.2 mm 1 mps 744 mmHg 89%
    22:00 +12°C° 1.2 mm 1 mps 743 mmHg 93%
    23:00 +12°C° 3.1 mm 1 mps 743 mmHg 94%

    Tomorrow, 7 December, Saturday

    Time Temperature Precipitation Wind Pressure Humidity
    00:00 +12°C° 3.1 mm 1 mps 743 mmHg 95%
    01:00 +12°C° 3.1 mm 1 mps 742 mmHg 96%
    02:00 +12°C° 2.2 mm 1 mps 742 mmHg 96%
    03:00 +12°C° 2.2 mm 1 mps 741 mmHg 96%
    04:00 +12°C° 2.2 mm 1 mps 741 mmHg 96%
    05:00 +12°C° 1.3 mm 1 mps 741 mmHg 95%
    06:00 +12°C° 1.3 mm 1 mps 741 mmHg 94%
    07:00 +12°C° 1.3 mm 1 mps 741 mmHg 93%
    08:00 +12°C° 0.6 mm 1 mps 741 mmHg 92%
    09:00 +12°C° 0.6 mm 1 mps 741 mmHg 90%
    10:00 +13°C° 0.6 mm 1 mps 741 mmHg 89%
    11:00 +14°C° 0.2 mm 1 mps 741 mmHg 85%
    12:00 +14°C° 0.2 mm 1 mps 740 mmHg 81%
    13:00 +15°C° 0.2 mm 1 mps 740 mmHg 77%
    14:00 +14°C° 0.1 mm 1 mps 740 mmHg 80%
    15:00 +14°C° 0.1 mm 1 mps 740 mmHg 83%
    16:00 +12°C° 0.1 mm 0 mps 740 mmHg 86%
    17:00 +11°C° 0.1 mm 0 mps 740 mmHg 86%
    18:00 +12°C° 0.1 mm 1 mps 740 mmHg 86%
    19:00 +12°C° 0.1 mm 1 mps 741 mmHg 86%
    20:00 +11°C° 0 mm 1 mps 741 mmHg 86%
    21:00 +11°C° 0 mm 1 mps 741 mmHg 87%
    22:00 +11°C° 0 mm 1 mps 741 mmHg 87%
    23:00 +11°C° 0.1 mm 1 mps 741 mmHg 87%

    Day after tomorrow, 8 December, Sunday

    Time Temperature Precipitation Wind Pressure Humidity
    00:00 +11°C° 0.1 mm 1 mps 741 mmHg 87%
    01:00 +11°C° 0.1 mm 1 mps 741 mmHg 87%
    02:00 +10°C° 0.1 mm 1 mps 741 mmHg 87%
    03:00 +10°C° 0.1 mm 1 mps 740 mmHg 87%
    04:00 +10°C° 0.1 mm 1 mps 740 mmHg 87%
    05:00 +10°C° 0 mm 1 mps 741 mmHg 87%
    06:00 +10°C° 0 mm 1 mps 741 mmHg 86%
    07:00 +10°C° 0 mm 1 mps 741 mmHg 86%
    08:00 +11°C° 0 mm 1 mps 741 mmHg 84%
    09:00 +11°C° 0 mm 1 mps 741 mmHg 81%
    10:00 +12°C° 0 mm 1 mps 742 mmHg 79%
    11:00 +13°C° 0 mm 1 mps 741 mmHg 77%
    12:00 +13°C° 0 mm 1 mps 741 mmHg 75%
    13:00 +14°C° 0 mm 1 mps 741 mmHg 73%
    14:00 +13°C° 0 mm 1 mps 740 mmHg 76%
    15:00 +11°C° 0 mm 0 mps 740 mmHg 80%
    16:00 +10°C° 0 mm 0 mps 740 mmHg 83%
    17:00 +10°C° 0 mm 0 mps 740 mmHg 83%
    18:00 +10°C° 0 mm 0 mps 741 mmHg 84%
    19:00 +9°C° 0 mm 0 mps 741 mmHg 84%
    20:00 +10°C° 0 mm 1 mps 741 mmHg 85%
    21:00 +10°C° 0 mm 1 mps 740 mmHg 85%
    22:00 +9°C° 0 mm 1 mps 740 mmHg 85%
    23:00 +9°C° 0 mm 1 mps 740 mmHg 86%

    9 December, Monday

    Time Temperature Precipitation Wind Pressure Humidity
    00:00 +9°C° 0 mm 1 mps 740 mmHg 87%
    01:00 +9°C° 0 mm 1 mps 740 mmHg 87%
    02:00 +9°C° 0 mm 1 mps 739 mmHg 88%
    03:00 +9°C° 0 mm 1 mps 739 mmHg 89%
    04:00 +9°C° 0 mm 1 mps 739 mmHg 89%
    05:00 +9°C° 0 mm 1 mps 738 mmHg 89%
    06:00 +9°C° 0 mm 1 mps 738 mmHg 89%
    07:00 +9°C° 0 mm 1 mps 738 mmHg 89%
    08:00 +10°C° 0.1 mm 1 mps 738 mmHg 89%
    09:00 +10°C° 0.1 mm 2 mps 737 mmHg 89%
    10:00 +10°C° 0.1 mm 2 mps 737 mmHg 89%
    11:00 +10°C° 0.3 mm 2 mps 736 mmHg 90%
    12:00 +10°C° 0.3 mm 3 mps 735 mmHg 91%
    13:00 +10°C° 0.3 mm 3 mps 734 mmHg 92%
    14:00 +11°C° 0.7 mm 3 mps 734 mmHg 93%
    15:00 +11°C° 0.7 mm 4 mps 733 mmHg 93%
    16:00 +11°C° 0.7 mm 4 mps 732 mmHg 94%
    17:00 +10°C° 1.1 mm 5 mps 732 mmHg 93%
    18:00 +10°C° 1.1 mm 6 mps 732 mmHg 93%
    19:00 +10°C° 1.1 mm 6 mps 732 mmHg 92%
    20:00 +10°C° 2 mm 6 mps 732 mmHg 91%
    21:00 +10°C° 2 mm 5 mps 732 mmHg 90%
    22:00 +10°C° 2 mm 5 mps 732 mmHg 89%
    23:00 +10°C° 0.7 mm 4 mps 732 mmHg 89%

    10 December, Tuesday

    Time Temperature Precipitation Wind Pressure Humidity
    00:00 +10°C° 0.7 mm 3 mps 732 mmHg 89%
    01:00 +10°C° 0.7 mm 2 mps 732 mmHg 89%
    02:00 +9°C° 0.5 mm 2 mps 732 mmHg 88%
    03:00 +9°C° 0.5 mm 2 mps 732 mmHg 88%
    04:00 +9°C° 0.5 mm 1 mps 732 mmHg 88%
    05:00 +9°C° 0.8 mm 1 mps 732 mmHg 88%
    06:00 +9°C° 0.8 mm 1 mps 732 mmHg 87%
    07:00 +9°C° 0.8 mm 1 mps 732 mmHg 86%
    08:00 +9°C° 1.1 mm 1 mps 732 mmHg 85%
    09:00 +10°C° 1.1 mm 1 mps 733 mmHg 84%
    10:00 +10°C° 1.1 mm 1 mps 733 mmHg 83%
    11:00 +11°C° 0.2 mm 1 mps 733 mmHg 79%
    12:00 +11°C° 0.2 mm 1 mps 733 mmHg 75%
    13:00 +12°C° 0.2 mm 1 mps 733 mmHg 71%
    14:00 +11°C° 0 mm 1 mps 733 mmHg 74%
    15:00 +11°C° 0 mm 1 mps 734 mmHg 76%
    16:00 +10°C° 0 mm 1 mps 734 mmHg 79%
    17:00 +9°C° 0 mm 1 mps 735 mmHg 79%
    18:00 +8°C° 0 mm 2 mps 736 mmHg 80%
    19:00 +7°C° 0 mm 2 mps 736 mmHg 81%
    20:00 +7°C° 0 mm 3 mps 737 mmHg 80%
    21:00 +7°C° 0 mm 3 mps 738 mmHg 79%
    22:00 +5°C° 0 mm 4 mps 738 mmHg 78%
    23:00 +5°C° 0 mm 4 mps 739 mmHg 78%

    11 December, Wednesday

    Time Temperature Precipitation Wind Pressure Humidity
    00:00 +5°C° 0 mm 4 mps 739 mmHg 78%
    01:00 +4°C° 0 mm 4 mps 739 mmHg 78%
    02:00 +4°C° 0 mm 4 mps 740 mmHg 78%
    03:00 +4°C° 0 mm 4 mps 740 mmHg 77%
    04:00 +3°C° 0 mm 4 mps 740 mmHg 77%
    05:00 +3°C° 0 mm 4 mps 741 mmHg 77%
    06:00 +3°C° 0 mm 4 mps 741 mmHg 77%
    07:00 +3°C° 0 mm 4 mps 742 mmHg 77%
    08:00 +4°C° 0 mm 4 mps 742 mmHg 73%
    09:00 +5°C° 0 mm 4 mps 742 mmHg 69%
    10:00 +7°C° 0 mm 3 mps 742 mmHg 65%
    11:00 +7°C° 0 mm 3 mps 742 mmHg 63%
    12:00 +8°C° 0 mm 3 mps 741 mmHg 61%
    13:00 +8°C° 0 mm 3 mps 741 mmHg 60%
    14:00 +7°C° 0 mm 2 mps 741 mmHg 63%
    15:00 +6°C° 0 mm 2 mps 741 mmHg 67%
    16:00 +6°C° 0 mm 2 mps 741 mmHg 70%
    17:00 +5°C° 0 mm 2 mps 741 mmHg 70%
    18:00 +5°C° 0 mm 2 mps 741 mmHg 70%
    19:00 +4°C° 0 mm 2 mps 741 mmHg 69%
    20:00 +4°C° 0 mm 2 mps 741 mmHg 67%
    21:00 +4°C° 0 mm 2 mps 741 mmHg 66%
    22:00 +4°C° 0 mm 2 mps 741 mmHg 64%
    23:00 +5°C° 0 mm 1 mps 741 mmHg 62%
    Show more